Home   Weather   Tarlac City   Past weeks

Flag for Philippines Past Weather in Tarlac City, Philippines — Yesterday and Last 2 Weeks

79 °F

Mostly cloudy.

Feels Like: 83 °F
Forecast: 74 / 90 °F
Wind: 6 mph from Northwest

Location: Clarkfield Pampanga International Airport

Current Time: Oct 24, 2016 at 2:10:10 AM

Latest Report: Oct 24, 2016 at 1:00 AM

Visibility: 5 mi

Pressure: 29.86 "Hg

Humidity: 94%

Dew Point: 77 °F

Location of Tarlac CityLocation

Past Weather in Tarlac City — Graph


Tarlac City Temperature Yesterday

Maximum temperature yesterday: 91 °F (at 3:00 PM)
Minimum temperature yesterday: 77 °F (at 5:00 AM)
Average temperature yesterday: 82 °F

High & Low Weather Summary for the Past Weeks

High91 °F (Oct 22, 12:00 PM)100% (Oct 9, 1:00 AM)29.89 "Hg (Oct 9, 1:00 AM)
Low75 °F (Oct 9, 1:00 AM)62% (Oct 14, 5:00 PM)29.36 "Hg (Oct 16, 4:00 AM)
Average81 °F86%29.77 "Hg
* Reported Oct 9 12:00 AM — Oct 24 12:00 AM, Tarlac City, Weather by CustomWeather, © 2016

Note: Actual official high and low records may vary slightly from our data, if they occured in-between our weather recording intervals... More about our weather records


Tarlac City Weather History for the Previous 24 Hours

Scroll right to see more
Time TempWeatherWind HumidityBarometerVisibility
12:00 AM
Mon, Oct 24
81 °FMostly cloudy.3 mph89%29.86 "Hg5 mi
11:00 PM
Sun, Oct 23
81 °FMostly cloudy.6 mph94%29.86 "Hg5 mi
10:00 PM81 °FMostly cloudy.6 mph94%29.86 "HgN/A
9:00 PM81 °FMostly cloudy.2 mph94%29.86 "HgN/A
8:00 PM81 °FPassing clouds.3 mph89%29.86 "HgN/A
7:00 PM81 °FPassing clouds.6 mph89%29.83 "HgN/A
6:00 PM81 °FPartly cloudy.3 mph89%29.80 "HgN/A
5:00 PM81 °FThunderstorms. Broken clouds.8 mph89%29.80 "Hg6 mi
4:00 PM90 °FBroken clouds.5 mph67%29.77 "HgN/A
3:00 PM91 °FBroken clouds.1 mph63%29.77 "HgN/A
2:00 PM90 °FBroken clouds.6 mph71%29.80 "HgN/A
1:00 PM88 °FPartly sunny.3 mph70%29.83 "HgN/A
12:00 PM88 °FPartly sunny.1 mph70%29.83 "HgN/A
11:00 AM86 °FScattered clouds.5 mph75%29.86 "HgN/A
10:00 AM86 °FScattered clouds.5 mph75%29.89 "HgN/A
9:00 AM82 °FScattered clouds.6 mph84%29.89 "HgN/A
8:00 AM81 °FPartly sunny.6 mph84%29.86 "HgN/A
7:00 AM79 °FPartly sunny.3 mph94%29.86 "HgN/A
6:00 AM77 °FPartly sunny.7 mph94%29.86 "HgN/A
5:00 AM77 °FPartly cloudy.6 mph100%29.83 "Hg5 mi
4:00 AM79 °FPassing clouds.6 mph94%29.83 "Hg5 mi
3:00 AM79 °FPartly cloudy.2 mph94%29.83 "Hg5 mi
2:00 AM79 °FPartly cloudy.2 mph94%29.83 "Hg5 mi
Weather by CustomWeather, © 2016

See weather overviewHow to use our weather pages